Volver al catálogo

FENGYUN 1C DEB

ActivoLEO
NORAD 30342·DEBRIS·🇨🇳 China

Lanzado May 10, 1999 desde Taiyuan Satellite Launch Center

Loading…

Próximos Pases (próximas 24 horas)

TLE

ActualizadoSource: Space-Track

Época: Sep 13, 2026, 13:44 UTC

1 30342U 99025ABD 26256.57250948  .00000393  00000-0  38126-3 0  9996
2 30342 100.1896 102.3983 0168002 135.9928 287.3773 13.80379088986804

Sigue FENGYUN 1C DEB en tiempo real con AllMySat

Download on the App Store